Powrót do katalogu

YAOGAN 25A

AktywnyMilitariaLEO
NORAD 40338·PAYLOAD·🇨🇳 China

Wystrzelony Dec 10, 2014 z Jiuquan Satellite Launch Center

Loading…

Następne Przeloty (najbliższe 24 godziny)

TLE

ŚwieżeSource: Space-Track

Epoka: Sep 14, 2026, 14:55 UTC

1 40338U 14080A   26257.62163403 -.00000106  00000-0 -16541-4 0  9998
2 40338  63.3848  80.3327 0374511   9.6279 351.1670 13.45418677577692

Śledź YAOGAN 25A w czasie rzeczywistym z AllMySat

Download on the App Store